Home   Weather   Tucson   Past weeks
Flag for USA

Past Weather in Tucson, Arizona, USA — Yesterday and Last 2 Weeks

Now
52 °F

Clear.


Feels Like: 49 °F
Forecast: 88 / 54 °F
Wind: 8 mph from South

Location: Davis-Monthan Air Force Base

Current Time: Mar 26, 2019 at 5:36:06 am

Latest Report: Mar 26, 2019 at 4:58 am


Visibility: 10 mi

Pressure: 29.91 "Hg (27.31 "Hg at 758m altitude)

Humidity: 51%

Dew Point: 34 °F

Location of TucsonLocation

Past Weather in Tucson — Graph

°F

Tucson Temperature Yesterday

Maximum temperature yesterday: 82 °F (at 3:58 pm)
Minimum temperature yesterday: 46 °F (at 4:58 am)
Average temperature yesterday: 67 °F

High & Low Weather Summary for the Past Weeks

 TemperatureHumidityPressure
High82 °F (Mar 25, 3:58 pm)100% (Mar 12, 2:43 am)30.13 "Hg (Mar 12, 2:43 am)
Low36 °F (Mar 15, 2:58 am)12% (Mar 25, 2:58 pm)29.65 "Hg (Mar 11, 3:30 pm)
Average59 °F47%29.92 "Hg
* Reported Mar 11 3:01 am — Mar 26 3:58 am, Tucson. Weather by CustomWeather, © 2019

Note: Actual official high and low records may vary slightly from our data, if they occured in-between our weather recording intervals... More about our weather records

Advertising

Tucson Weather History for the Previous 24 Hours

Scroll right to see more
 ConditionsComfort  
Time TempWeatherWind HumidityBarometerVisibility
3:58 am
Tue, Mar 26
53 °FClear.7 mph48%29.90 "Hg10 mi
2:58 am54 °FClear.5 mph48%29.92 "Hg10 mi
1:58 am54 °FClear.3 mph50%29.93 "Hg10 mi
12:58 am56 °FClear.5 mph47%29.95 "Hg10 mi
11:58 pm
Mon, Mar 25
58 °FClear.7 mph40%29.95 "Hg10 mi
10:58 pm61 °FClear.5 mph35%29.96 "Hg10 mi
9:58 pm66 °FClear.3 mph27%29.96 "Hg10 mi
8:58 pm71 °FClear.7 mph23%29.95 "Hg10 mi
6:58 pm76 °FClear.8 mph17%29.95 "Hg10 mi
5:58 pm81 °FSunny.3 mph15%29.93 "Hg10 mi
4:58 pm82 °FSunny.5 mph13%29.93 "Hg10 mi
3:58 pm82 °FSunny.No wind12%29.94 "Hg10 mi
2:58 pm82 °FSunny.7 mph12%29.95 "Hg10 mi
1:58 pm81 °FSunny.No wind13%29.97 "Hg10 mi
10:58 am74 °FSunny.No wind21%30.05 "Hg10 mi
9:58 am71 °FSunny.6 mph23%30.06 "Hg10 mi
Weather by CustomWeather, © 2019

See weather overview